Find Beatrice Tinsley

NORAD ID: 66740 Int'l Des: 2025-276 Owner: URUGUS Country: UY Constellation: satellogic operational
LEOCIRCULARRETROGRADESSO

当前视图

正在加载3D地球...

About Beatrice Tinsley

Beatrice Tinsley (NORAD 66740) is a satellogic constellation satellite launched Nov 28, 2025 by URUGUS of UY. It operates in LEO, CIRCULAR, RETROGRADE, SSO orbit with a mass of 41.50 kg.

关于 Beatrice Tinsley

正在加载描述...

即将过境

Passes for default location (London). Set your location on the main map for personalized predictions.

高度历史

Loading altitude history...

两行轨道根数

1 66740U 25276CC 26163.74868903 .00007119 00000-0 33148-3 0 9998
2 66740 97.4214 237.4864 0003572 36.6744 323.4735 15.20215247 29752
Epoch: Jun 12, 2026 • Age: 14 hours

当前状态

高度 521.5 km
速度 7.60 km/s
星下点 -43.55°S, 136.42°W
发射日期 Nov 28, 2025
运行时间 0.5 years
类型 other

技术详情

分类 Payload
质量 41.50 kg
干质量 38.50 kg
总质量 41.50 kg
长度 0.81 m
直径 0.51 m
跨度 0.81 m
形状 Box
制造商 URUGUS
平台类型 Newsat V
阶段状态 In Orbit
所有者/国家 URUGUS/UY

Most Searched